Regional Weather Roundup
Issued by NWS

Home | Current Version | Previous Version | Text Only | Print | Product List | Glossary On
Versions: 1 2 3 4 5 6 7 8 9 10 11 12 13 14 15 16 17 18 19 20 21 22 23 24 25 26 27 28 29 30 31 32 33 34 35 36 37 38 39 40 41 42 43 44 45 46 47 48 49 50
000
ASUS43 KLMK 211010
RWRKY
KENTUCKY REGIONAL WEATHER ROUNDUP
NATIONAL WEATHER SERVICE LOUISVILLE KY
600 AM EDT SAT OCT 21 2017

NOTE "FAIR" INDICATES FEW OR NO CLOUDS BELOW 12,000 FEET
WITH NO SIGNIFICANT WEATHER AND/OR OBSTRUCTIONS TO VISIBILITY.

KYZ001>023-026-027-061>063-070>075-211100-
WESTERN AND SOUTH CENTRAL KENTUCKY

CITY           SKY/WX    TMP DP  RH WIND       PRES   REMARKS
PADUCAH        CLOUDY    61  46  57 S6        30.11S
HENDERSON      MOCLDY    50  46  86 CALM      30.14R
OWENSBORO      CLOUDY    52  49  89 SE6       30.16R
HOPKINSVILLE   CLOUDY    54  48  80 SE8       30.15S
BOWLING GREEN  CLOUDY    48  47  96 CALM      30.20R FOG
GLASGOW        PTCLDY    46  46 100 CALM      30.20R
$$

KYZ024-025-028>034-038-045-046-053-211100-
NORTH CENTRAL KENTUCKY

CITY           SKY/WX    TMP DP  RH WIND       PRES   REMARKS
LOUISVILLE/SDF MOCLDY    56  51  84 SE7       30.18R
LOUISVILLE/LOU MOCLDY    53  52  96 CALM      30.19R
FORT KNOX      MOCLDY    50  50  98 CALM      30.17R
$$

KYZ035>037-039>044-047>052-055>060-089>105-211100-
NORTHEAST KENTUCKY

CITY           SKY/WX    TMP DP  RH WIND       PRES   REMARKS
LEXINGTON      CLOUDY    54  50  86 SE7       30.21R
COVINGTON      CLOUDY    57  53  86 S6        30.19S
FRANKFORT      CLOUDY    48  44  86 CALM      30.19R
$$

KYZ054-064>069-076>088-106>120-211100-
SOUTHEAST KENTUCKY

CITY           SKY/WX    TMP DP  RH WIND       PRES   REMARKS
JACKSON        CLEAR     53  50  89 S3        30.23R
LONDON         CLOUDY    46  44  93 CALM      30.24R
SOMERSET       CLOUDY    45  45 100 CALM      30.25R
MIDDLESBORO    FOG       45  45 100 CALM      30.28R VSB 1/4
MONTICELLO     MOSUNNY   45  44  97 W3        30.24R
$$





USA.gov is the U.S. government's official web portal to all federal, state and local government web resources and services.